Regional Weather Roundup
Issued by NWS

Home | Current Version | Previous Version | Graphics & Text | Print | Product List | Glossary Off
Versions: 1 2 3 4 5 6 7 8 9 10 11 12 13 14 15 16 17 18 19 20 21 22 23 24 25 26 27 28 29 30 31 32 33 34 35 36 37 38 39 40 41 42 43 44 45 46 47 48 49 50

000
ASUS43 KLSX 011759
RWRMO

WEATHER SUMMARY FOR MISSOURI
NATIONAL WEATHER SERVICE SPRINGFIELD MO
1200 PM CST SUN MAR 01 2015

NOTE: "FAIR" INDICATES FEW OR NO CLOUDS BELOW 12,000 FEET WITH NO
       SIGNIFICANT WEATHER AND/OR OBSTRUCTIONS TO VISIBILITY.
       CURRENT SKY AND/OR WEATHER CONDITIONS ARE NOT AVAILABLE FOR
       CHILLICOTHE AND FARMINGTON.

MOZ001>031-035>038-043-044-053-054-011900-
...NORTHERN AND WESTERN MISSOURI...

CITY           SKY/WX    TMP DP  RH WIND       PRES   REMARKS
KANSAS CTY INT PTSUNNY   29  21  72 N8        30.40R WCI  21
6HR MIN TEMP:  20; 6HR MAX TEMP:  31;

KANSAS C DTWN  CLOUDY    29  20  69 CALM      30.42R
6HR MIN TEMP:  24; 6HR MAX TEMP:  31;

LEE`S SUMMIT   CLOUDY    29  20  69 CALM      30.42R
6HR MIN TEMP:  22; 6HR MAX TEMP:  29;

ST JOSEPH      CLOUDY    28  20  71 N5        30.42F WCI  23
6HR MIN TEMP:  22; 6HR MAX TEMP:  28; 6HR PCP: TRACE;

CHILLICOTHE      N/A     31  20  63 NW6       30.42S WCI  25
6HR MIN TEMP:  22; 6HR MAX TEMP:  31; 6HR PCP:  0.01;

KIRKSVILLE     CLOUDY    27  19  72 CALM      30.39F
6HR MIN TEMP:  20; 6HR MAX TEMP:  27; 6HR PCP:  0.04;


$$
MOZ066>068-077>081-088>096-101>105-011900-
...SOUTHWEST MISSOURI...

CITY           SKY/WX    TMP DP  RH WIND       PRES   REMARKS
SPRINGFIELD    CLOUDY    30  26  85 N6        30.35F WCI  24
6HR MIN TEMP:  27; 6HR MAX TEMP:  30;

JOPLIN         CLOUDY    28  25  88 VRB7      30.40F WCI  21
6HR MIN TEMP:  26; 6HR MAX TEMP:  28; 6HR PCP: TRACE;


$$
MOZ032>034-039>042-045>050-055>058-069>072-011900-
...CENTRAL MISSOURI...

CITY           SKY/WX    TMP DP  RH WIND       PRES   REMARKS
COLUMBIA       CLOUDY    28  22  78 N5        30.39S WCI  23
6HR MIN TEMP:  24; 6HR MAX TEMP:  28; 6HR PCP:  0.03;

JEFFERSON CITY CLOUDY    29  24  82 NW7       30.41R WCI  22
6HR MIN TEMP:  25; 6HR MAX TEMP:  29; 6HR PCP:  0.07;

ROLLA          CLOUDY    27  25  92 NW5       30.34F FOG     WCI  22
6HR MIN TEMP:  25; 6HR MAX TEMP:  27;

SEDALIA        CLOUDY    28  21  75 NW6       30.41S WCI  22
6HR MIN TEMP:  23; 6HR MAX TEMP:  29; 6HR PCP:  0.05;

OSAGE BEACH    CLOUDY    28  25  86 W6        30.39S WCI  22

$$
MOZ051-052-059>065-011900-
...EAST CENTRAL MISSOURI...

CITY           SKY/WX    TMP DP  RH WIND       PRES   REMARKS
ST LOUIS INTL  FRZ DRZL  30  25  81 NW5       30.38S WCI  25
6HR MIN TEMP:  27; 6HR MAX TEMP:  30; 6HR PCP:  0.01;

SPIRIT OF STL  CLOUDY    29  25  85 NW3       30.38F
6HR MIN TEMP:  26; 6HR MAX TEMP:  29; 6HR PCP:  0.01;

ST CHARLES     CLOUDY    30  25  81 W7        30.38F WCI  23
6HR MIN TEMP:  25; 6HR MAX TEMP:  30; 6HR PCP:  0.06;


$$
MOZ072>076-082>087-097>100-106>115-011900-
...SOUTH CENTRAL AND SOUTHEAST MISSOURI...

CITY           SKY/WX    TMP DP  RH WIND       PRES   REMARKS
CAPE GIRARDEAU CLOUDY    35  31  85 N5        30.37F FOG
6HR MIN TEMP:  32; 6HR MAX TEMP:  35; 6HR PCP:  0.05;

FARMINGTON     CLOUDY    32  28  86 CALM      30.38S
6HR MIN TEMP:  28; 6HR MAX TEMP:  32; 6HR PCP:  0.06;

POPLAR BLUFF   CLOUDY    36  30  79 NW3       30.36F
6HR MIN TEMP:  31; 6HR MAX TEMP:  36; 6HR PCP:  0.01;

WEST PLAINS    CLOUDY    34  30  85 NW5       30.34F WCI  30
6HR MIN TEMP:  30; 6HR MAX TEMP:  34; 6HR PCP: TRACE;


$$


USA.gov is the U.S. government's official web portal to all federal, state and local government web resources and services.